Regional Weather Roundup
Issued by NWS

Home | Current Version | Previous Version | Text Only | Print | Product List | Glossary On
Versions: 1 2 3 4 5 6 7 8 9 10 11 12 13 14 15 16 17 18 19 20 21 22 23 24 25 26 27 28 29 30 31 32 33 34 35 36 37 38 39 40 41 42 43 44 45 46 47 48 49 50
000
ASUS43 KMKX 300621
RWRWI

WISCONSIN REGIONAL WEATHER ROUNDUP
NATIONAL WEATHER SERVICE MILWAUKEE/SULLIVAN WI
1200 AM CST FRI JAN 30 2015

NOTE: "FAIR" INDICATES FEW OR NO CLOUDS BELOW 12,000 FEET WITH NO
SIGNIFICANT WEATHER AND/OR OBSTRUCTIONS TO VISIBILITY.

WIZ001-002-006>008-014>016-023>028-300700-
NORTHWEST WISCONSIN

CITY           SKY/WX    TMP DP  RH WIND       PRES   REMARKS
SUPERIOR ARPT  PTCLDY     7   0  72 N8        30.53S WCI  -5
6HR MIN TEMP:   7; 6HR MAX TEMP:  15;

ASHLAND        CLOUDY    14   5  67 N10       30.49R WCI   1
6HR MIN TEMP:  14; 6HR MAX TEMP:  20;

HAYWARD        CLEAR      7   0  73 VRB3      30.46R
6HR MIN TEMP:   7; 6HR MAX TEMP:  19;

SIREN          CLEAR      9   1  72 N7        30.52R WCI  -3
6HR MIN TEMP:   9; 6HR MAX TEMP:  18;

CUMBERLAND     CLEAR      9   0  66 N6        30.47S WCI  -1
RICE LAKE      CLEAR      9   1  71 NW5       30.50R WCI   1
6HR MIN TEMP:   9; 6HR MAX TEMP:  21;

CHETEK         CLEAR      6   1  81 CALM      30.49R
6HR MIN TEMP:   6; 6HR MAX TEMP:  21;

LADYSMITH      CLOUDY    13   5  71 NW9       30.46R WCI   0
6HR MIN TEMP:  13; 6HR MAX TEMP:  22;

EAU CLAIRE     CLEAR     12   3  67 NW7       30.49R WCI   1
6HR MIN TEMP:  12; 6HR MAX TEMP:  25;

MENOMONIE      CLEAR     13   5  69 NW6       30.52R WCI   4
NEW RICHMOND   CLEAR      9   3  77 N5        30.52R WCI   1
6HR MIN TEMP:   9; 6HR MAX TEMP:  21;

OSCEOLA        CLEAR     13   5  70 NW6       30.56R WCI   4
6HR MIN TEMP:  13; 6HR MAX TEMP:  21;

$$

WIZ003>005-009-010-017-018-300700-
NORTH CENTRAL WISCONSIN

CITY           SKY/WX    TMP DP  RH WIND       PRES   REMARKS
MANITOWISH WTR FLURRIES  12   7  79 N6        30.37R WCI   3
6HR MIN TEMP:  12; 6HR MAX TEMP:  18;

ARBOR VITAE    CLOUDY    14   8  75 N10       30.36R WCI   1
6HR MIN TEMP:  14; 6HR MAX TEMP:  20;

WOODRUFF       CLOUDY    14   8  75 N10       30.36R WCI   1
6HR MIN TEMP:  14; 6HR MAX TEMP:  20;

RHINELANDER    CLOUDY    14   3  61 NW9G18    30.34S WCI   2
6HR MIN TEMP:  14; 6HR MAX TEMP:  19; 6HR PCP: TRACE;

EAGLE RIVER    FLURRIES  13   5  73 N13       30.33R WCI  -2
6HR MIN TEMP:  13; 6HR MAX TEMP:  19;

LAND O LAKES   FLURRIES  13   7  79 N15       30.34S WCI  -3
6HR MIN TEMP:  13; 6HR MAX TEMP:  19;

PHILLIPS       CLOUDY    13   5  69 N8        30.39R WCI   2
6HR MIN TEMP:  13; 6HR MAX TEMP:  20;

TOMAHAWK       CLOUDY    15   6  70 N5        30.37S WCI   7
6HR MIN TEMP:  15; 6HR MAX TEMP:  22;

MEDFORD        CLOUDY    14   6  69 N12       30.38R WCI   1
6HR MIN TEMP:  14; 6HR MAX TEMP:  23;

MERRILL        CLOUDY    16   5  62 N15       30.37S WCI   1
6HR MIN TEMP:  16; 6HR MAX TEMP:  23;

$$

WIZ029-030-035-036-043>047-300700-
CENTRAL WISCONSIN

CITY           SKY/WX    TMP DP  RH WIND       PRES   REMARKS
WAUSAU         CLOUDY    17   5  59 N12G18    30.37R WCI   4
6HR MIN TEMP:  17; 6HR MAX TEMP:  26; 6HR PCP: TRACE;

MOSINEE        CLOUDY    18   9  68 NW12      30.39R WCI   5
MARSHFIELD     CLOUDY    17   6  62 NW12      30.39R WCI   4
6HR MIN TEMP:  17; 6HR MAX TEMP:  27;

STEVENS POINT  CLOUDY    18   8  64 N8        30.39R WCI   7
6HR MIN TEMP:  18; 6HR MAX TEMP:  27;

WAUPACA        PTCLDY    22   7  52 NW10G20   30.39R WCI  11
6HR MIN TEMP:  22; 6HR MAX TEMP:  32;

WAUTOMA        CLOUDY    22  16  78 NW8       30.40R WCI  13
6HR MIN TEMP:  22; 6HR MAX TEMP:  32; 6HR PCP: TRACE;

WISC RAPIDS    CLOUDY    20   8  60 NW9       30.41R WCI   9
6HR MIN TEMP:  20; 6HR MAX TEMP:  28;

CAMP DOUGLAS   PTCLDY    19   9  64 NW14G20   30.43R WCI   5
6HR MIN TEMP:  19; 6HR MAX TEMP:  30; 6HR PCP: TRACE;

$$

WIZ011>013-019>022-031-037>040-048>050-300700-
NORTHEAST WISCONSIN

CITY           SKY/WX    TMP DP  RH WIND       PRES   REMARKS
ANTIGO         CLOUDY    14   6  69 N13       30.34R WCI   0
6HR MIN TEMP:  14; 6HR MAX TEMP:  20;

SHAWANO        CLOUDY    22  10  59 N8        30.38R WCI  13
6HR MIN TEMP:  22; 6HR MAX TEMP:  29;

OCONTO         CLOUDY    18   8  63 MISG      30.38R
6HR MIN TEMP:  18; 6HR MAX TEMP:  27;

STURGEON BAY   CLOUDY    16   9  73 N13       30.37S WCI   2
6HR MIN TEMP:  16; 6HR MAX TEMP:  27;

GREEN BAY      CLOUDY    21  12  68 N13       30.37R WCI   9
6HR MIN TEMP:  21; 6HR MAX TEMP:  29; 6HR PCP: TRACE;

MANITOWOC      PTCLDY    20  12  71 N15       30.36R WCI   6
6HR MIN TEMP:  20; 6HR MAX TEMP:  31; 6HR PCP: TRACE;

APPLETON       PTCLDY    21  12  68 NW12      30.36R WCI   9
CLINTONVILLE   CLOUDY    21  12  68 NW13      30.37R WCI   9
OSHKOSH        CLOUDY    22   9  57 NW12      30.36R WCI  10
6HR MIN TEMP:  22; 6HR MAX TEMP:  31; 6HR PCP: TRACE;

$$

WIZ032>034-041-042-053>061-300700-
SOUTHWEST WISCONSIN

CITY           SKY/WX    TMP DP  RH WIND       PRES   REMARKS
LA CROSSE      MOCLDY    20   9  62 N12       30.48R WCI   8
6HR MIN TEMP:  20; 6HR MAX TEMP:  30;

SPARTA         CLOUDY    19  10  65 NW12      30.46R WCI   7
6HR MIN TEMP:  19; 6HR MAX TEMP:  29;

VIROQUA        CLOUDY    20  11  68 N15       30.41R WCI   6
6HR MIN TEMP:  20; 6HR MAX TEMP:  28;

BOSCOBEL       CLOUDY    25  12  58 N14       30.45R WCI  13
6HR MIN TEMP:  25; 6HR MAX TEMP:  35;

PRAIRIE DU CHI PTCLDY    24  10  56 N9        30.46R WCI  14
6HR MIN TEMP:  24; 6HR MAX TEMP:  32;

PLATTEVILLE    MOCLDY    24  14  67 NW10      30.39R WCI  13
6HR MIN TEMP:  24; 6HR MAX TEMP:  33;

$$

WIZ056-057-062-063-064-067-068-300700-
SOUTH CENTRAL WISCONSIN

CITY           SKY/WX    TMP DP  RH WIND       PRES   REMARKS
REEDSBURG      MOCLDY    21  10  60 NW13      30.41R WCI   9
6HR MIN TEMP:  21; 6HR MAX TEMP:  31;

BARABOO/DELLS  PTCLDY    21   9  59 N9G16     30.39R WCI  11
6HR MIN TEMP:  21; 6HR MAX TEMP:  31;

LONE ROCK      CLOUDY    25  12  58 NW12      30.42R WCI  14
6HR MIN TEMP:  25; 6HR MAX TEMP:  33;

MINERAL POINT  CLOUDY    27  14  59 NW13      30.38R WCI  16
MADISON        CLOUDY    26  13  57 N8        30.37R WCI  18
6HR MIN TEMP:  26; 6HR MAX TEMP:  33; 6HR PCP: TRACE;

MIDDLETON      CLOUDY    27  14  59 N13       30.37R WCI  16
6HR MIN TEMP:  27; 6HR MAX TEMP:  34;

WATERTOWN      CLOUDY    24  11  57 N12       30.36R WCI  13
6HR MIN TEMP:  24; 6HR MAX TEMP:  33;

MONROE         CLOUDY    28  16  59 N9G18     30.35R WCI  20
JANESVILLE     MOCLDY    28  16  59 N9        30.35R WCI  20
$$

WIZ051-052-058>065-066-070>072-300700-
SOUTHEAST WISCONSIN

CITY           SKY/WX    TMP DP  RH WIND       PRES   REMARKS
MILWAUKEE      MOCLDY    26   8  46 N18G28    30.33R WCI  13
6HR MIN TEMP:  26; 6HR MAX TEMP:  35; 6HR PCP: TRACE;

WAUKESHA       CLOUDY    23  10  58 N9        30.35R WCI  13
MILWAUKEE/TIMM CLOUDY    27   9  46 N17       30.35R WCI  14
RACINE         CLOUDY    26   9  48 N14G26    30.34R WCI  14
6HR MIN TEMP:  26; 6HR MAX TEMP:  35;

BURLINGTON     CLOUDY    24  12  58 N13G20    30.34R WCI  13
6HR MIN TEMP:  24; 6HR MAX TEMP:  32;

KENOSHA        CLOUDY    27  12  53 N12G21    30.32R WCI  17
6HR MIN TEMP:  27; 6HR MAX TEMP:  35;

FOND DU LAC    CLOUDY    22   8  55 N13       30.36R WCI  10
6HR MIN TEMP:  22; 6HR MAX TEMP:  33; 6HR PCP: TRACE;

SHEBOYGAN      CLOUDY    23  12  62 N13       30.34R WCI  11
6HR MIN TEMP:  23; 6HR MAX TEMP:  32; 6HR PCP: TRACE;

WEST BEND      CLOUDY    25  10  54 NW8       30.34R WCI  16
JUNEAU         CLOUDY    23   9  55 N12       30.36R WCI  12
6HR MIN TEMP:  23; 6HR MAX TEMP:  32;

$$

LSZ147-162-300700-
LAKE SUPERIOR

STATION/POSITION TIME  TEMP    WIND        PRES    WAVE
                       AIR SEA DIR/SP/G            HT/PER
                 (UTC) (F)     (DEG/KT/KT) (MB)    (FT/S)
DEVILS ISLAND    0600   14     360/ 11/ 14 1034.1R
PORT WING        0540   16     310/ 11/ 17 1032.8R
SAXON HARBOR     0500   17     340/ 12/ 19 1031.5R
$$

LMZ867-665-643>646-300700-
LAKE MICHIGAN

STATION/POSITION TIME  TEMP    WIND        PRES    WAVE
                       AIR SEA DIR/SP/G            HT/PER


USA.gov is the U.S. government's official web portal to all federal, state and local government web resources and services.